RH
3 2 2 3 3 3 3 4 4 4 3 3 5 24 14 13 23 26 38 37 18 13 24 40 51 64 67 62 65 65 54 43 31 34 31 31 29 16 7 2 2 2 2 2 2 2 4 7 9
3 3 3 2 2 2 2 3 3 3 3 4 3 3 15 17 15 13 19 43 35 27 11 23 40 52 69 60 60 62 63 61 58 37 33 32 32 23 9 4 2 2 2 2 2 2 3 5 8
3 3 3 3 3 3 2 2 2 2 2 3 3 4 6 10 20 13 20 19 18 18 15 13 26 44 55 68 54 61 60 66 64 50 36 33 33 28 12 5 2 2 2 2 2 2 2 4 7
3 3 3 3 3 3 3 3 2 2 2 2 2 3 4 4 10 20 16 23 28 17 19 16 15 34 48 56 63 53 58 64 66 61 42 35 34 31 19 7 3 2 2 2 2 2 2 2 5
3 3 3 3 2 2 2 2 2 2 2 2 2 2 3 3 4 5 21 19 34 34 22 23 15 18 37 47 57 55 52 54 60 60 56 39 36 34 23 8 2 2 2 2 2 2 2 2 3
4 4 3 3 3 3 3 2 2 2 2 2 2 2 3 2 2 3 4 19 23 26 44 31 22 12 21 42 48 53 52 50 52 59 54 52 39 36 24 11 3 2 2 2 2 2 2 2 2
5 4 4 4 4 4 3 3 2 2 2 2 2 2 2 2 2 2 3 4 14 24 42 76 44 26 15 34 60 57 50 55 52 57 56 55 46 36 29 10 3 2 2 2 2 2 2 2 2
6 6 6 5 5 4 4 4 3 3 3 3 2 2 2 2 1 2 2 3 4 12 37 62 82 59 49 45 71 70 54 54 59 55 56 52 50 38 33 14 4 2 2 2 2 2 2 2 2
7 7 6 6 5 5 4 4 4 3 2 2 2 2 2 2 2 1 2 2 3 4 15 41 87 69 66 63 79 88 69 51 52 55 55 51 51 41 35 19 4 2 2 2 2 2 2 2 2
8 8 8 7 6 5 5 5 4 4 3 2 2 2 1 1 1 1 1 2 2 3 5 25 41 90 75 79 91 96 84 58 49 47 58 53 51 44 38 24 6 2 2 2 2 2 2 2 2
10 10 9 9 8 8 6 6 6 4 3 2 2 2 1 1 1 1 1 1 2 3 4 14 37 51 84 74 97 80 85 66 54 47 50 59 52 45 38 31 9 2 2 3 2 2 2 2 2
10 11 11 12 11 10 9 7 5 3 2 2 2 1 1 1 1 1 1 1 2 2 3 6 21 31 54 73 98 94 89 71 57 51 51 48 56 46 40 36 13 3 2 2 2 2 2 2 2
12 12 12 12 12 7 6 5 4 2 2 1 1 1 1 1 1 1 1 1 2 2 3 5 13 21 37 65 88 96 97 65 58 45 49 47 57 50 42 39 20 4 2 2 3 2 2 2 2
14 13 15 12 9 8 6 4 2 2 1 1 1 1 1 1 1 2 2 2 2 3 4 5 7 21 22 46 74 97 96 73 46 39 40 48 58 52 45 44 24 8 2 2 3 4 3 2 2
14 14 12 12 10 8 5 3 2 2 1 1 1 1 1 1 1 1 2 2 3 6 5 6 7 18 19 23 74 80 96 92 48 36 37 43 64 56 46 51 28 10 3 2 3 5 5 6 4
17 15 12 13 10 6 4 2 2 1 2 2 2 2 2 2 2 1 2 2 4 8 6 6 8 12 20 17 61 71 89 96 79 45 43 40 71 61 47 59 34 14 5 2 3 4 6 8 6
17 14 15 13 9 5 3 2 2 2 2 2 2 2 2 3 2 2 1 2 4 7 8 7 9 7 22 20 47 70 96 96 90 48 45 50 71 65 50 66 44 19 9 3 2 3 4 6 7
17 14 17 15 9 4 4 2 2 2 3 4 4 4 3 3 3 3 2 2 4 6 12 8 8 8 18 22 44 69 91 96 93 73 43 50 75 68 55 66 55 23 14 10 4 3 3 5 6
19 21 20 16 8 5 4 2 2 3 5 9 10 7 6 5 4 3 2 2 3 7 13 12 8 9 14 26 36 67 81 95 96 95 44 51 76 77 58 65 65 33 16 14 12 8 7 10 9
22 23 21 17 8 5 4 2 4 6 9 17 22 30 18 8 5 4 3 2 2 7 12 12 8 9 14 26 30 50 75 96 96 96 82 53 69 76 64 61 69 45 17 15 15 13 10 11 8
26 23 24 16 7 5 3 2 3 6 17 34 50 66 46 29 9 5 4 2 2 6 12 13 9 8 10 26 27 47 97 87 96 94 98 68 68 69 68 64 73 48 23 17 18 16 12 8 6
27 25 28 19 8 6 4 3 2 7 16 40 74 92 89 80 26 7 4 2 2 5 12 14 11 7 8 29 24 38 65 82 96 95 96 95 81 76 64 66 82 47 23 17 19 18 12 7 4
28 29 27 20 10 8 5 4 3 4 16 58 80 100 100 100 38 8 4 3 2 4 11 13 12 7 7 20 23 26 63 100 94 95 96 95 94 87 76 68 82 54 26 19 25 32 20 5 3
31 26 32 21 13 10 7 4 4 4 6 22 68 96 100 100 27 13 6 6 2 3 10 13 13 9 7 10 23 26 47 87 89 96 96 96 96 92 91 91 94 84 49 40 29 35 23 4 2
31 33 30 29 18 15 8 5 4 4 4 6 22 67 99 100 42 30 21 7 3 2 9 13 12 11 8 7 20 25 41 55 81 95 95 98 96 97 92 92 92 89 80 64 25 26 23 4 4
33 35 43 44 23 12 10 7 4 4 4 4 10 38 67 66 68 37 40 12 4 2 7 12 12 12 10 6 12 23 32 47 88 92 95 96 96 98 100 94 96 100 100 71 28 27 25 10 6
36 38 44 40 24 13 10 6 4 4 4 4 5 15 42 39 67 30 30 13 5 2 5 11 12 12 11 8 6 18 28 36 86 93 94 93 96 96 97 97 97 97 97 91 54 35 35 24 12
41 44 47 49 41 17 11 6 4 4 4 4 4 8 20 23 23 42 18 10 5 3 3 8 11 12 11 10 6 10 25 29 63 96 98 97 98 97 96 96 93 94 96 92 74 74 35 26 27
45 46 48 53 51 29 12 9 4 3 3 3 4 5 7 14 12 19 15 8 4 2 2 5 9 11 11 10 7 6 14 26 38 76 99 94 98 96 96 97 94 73 45 66 63 80 72 28 27
52 53 55 61 55 37 17 11 4 3 3 3 3 3 5 7 8 8 10 6 4 2 2 3 6 9 11 10 9 6 6 20 30 44 94 94 97 96 98 96 96 39 24 37 50 50 78 91 48
Wind_Speed
22 24 25 26 28 28 27 26 31 30 30 29 26 29 31 30 35 38 40 40 34 33 29 31 33 32 30 29 30 27 25 25 23 21 19 18 17 16 16 18 21 22 21 20 17 14 13 16 16
20 21 21 22 24 24 25 26 28 30 31 32 33 31 30 32 37 40 40 42 38 32 30 33 34 36 34 32 32 32 28 28 25 25 23 20 19 18 18 19 20 24 24 22 20 16 13 15 15
19 20 22 22 22 24 27 28 29 32 32 34 32 31 29 33 38 44 42 43 39 31 35 34 36 35 36 34 34 34 34 31 29 27 25 24 23 21 20 19 20 22 24 23 22 18 15 14 15
19 19 19 20 22 23 27 32 34 32 32 35 36 31 34 40 38 40 44 44 41 33 38 38 37 38 37 38 36 35 35 34 31 30 28 27 25 23 21 20 23 23 24 23 23 20 16 14 15
21 22 22 22 23 25 30 31 32 32 33 35 40 40 41 42 42 44 44 48 46 36 38 40 39 39 41 39 39 37 36 37 35 32 31 29 28 25 24 22 24 24 27 25 25 23 19 15 15
23 24 25 26 28 29 31 33 34 36 37 39 39 43 47 48 46 46 49 49 49 43 39 42 42 41 41 43 40 40 40 38 36 35 33 31 30 28 27 27 28 27 28 27 27 25 21 17 15
26 26 28 30 31 32 33 35 36 37 41 45 46 48 49 49 51 51 51 52 53 50 46 46 46 44 43 45 43 42 42 40 39 37 36 34 32 31 29 29 29 29 30 29 27 26 23 18 14
30 32 34 36 36 38 38 40 42 43 45 50 55 59 55 52 55 55 55 54 56 56 51 49 48 48 44 43 44 44 44 44 41 39 37 37 33 33 32 30 31 31 31 30 27 28 25 21 16
32 35 37 39 40 42 44 46 47 50 52 53 59 64 64 62 60 58 60 59 57 60 60 53 51 51 50 47 44 43 47 47 46 42 40 38 36 35 34 32 31 32 32 32 29 29 27 23 18
34 37 39 42 45 46 48 51 54 55 59 65 64 67 71 72 70 66 64 67 63 63 64 59 58 53 51 51 49 47 48 49 48 45 42 38 39 38 36 33 33 34 34 33 32 31 29 25 20
36 39 42 45 48 52 55 59 64 69 70 72 74 75 75 77 81 71 71 71 71 65 68 64 61 58 54 55 48 54 51 51 51 49 45 42 41 40 38 37 35 35 35 35 35 31 29 26 22
37 41 44 45 49 54 58 64 68 74 77 83 82 73 74 79 81 77 74 74 77 72 70 69 66 64 58 58 59 58 57 52 52 50 46 42 43 42 41 39 37 37 36 37 36 34 29 26 23
39 43 47 50 53 58 63 69 74 78 84 83 78 70 70 78 83 81 78 79 81 80 73 74 71 68 64 63 62 64 62 58 52 49 47 45 45 45 45 43 40 39 39 39 37 36 33 29 28
41 46 48 53 58 62 68 74 80 86 85 76 69 66 67 74 83 85 86 85 84 86 78 79 77 73 72 70 69 65 57 62 57 54 49 47 46 48 48 45 43 41 41 40 39 37 34 30 29
44 47 52 56 59 64 71 76 80 82 69 64 62 61 63 71 81 86 90 91 89 89 85 84 80 80 78 75 73 71 54 65 63 60 54 49 49 51 50 48 46 43 42 41 41 39 35 31 30
45 48 52 56 61 67 74 76 80 67 55 53 54 57 57 63 76 83 88 91 93 90 91 85 85 85 82 81 76 72 66 57 67 63 59 53 53 54 53 51 48 46 43 43 42 41 37 33 32
45 49 53 57 62 68 75 76 74 58 48 44 43 47 51 57 66 76 85 90 94 93 95 90 87 89 86 85 81 71 50 53 57 69 64 58 57 57 57 54 51 48 47 43 43 43 39 37 34
47 50 54 60 63 68 75 70 65 51 44 40 38 41 44 47 57 68 84 89 95 96 95 94 89 92 90 88 83 76 72 57 68 66 66 63 62 61 60 58 54 52 50 46 43 44 41 39 37
48 51 55 59 65 70 73 67 54 46 37 34 32 33 36 39 46 61 77 88 95 99 98 96 92 94 93 92 86 78 69 61 74 65 69 66 66 64 64 60 57 54 51 48 47 45 43 41 38
47 51 54 58 65 70 72 62 47 41 32 28 24 22 25 31 38 54 69 84 92 100 100 99 95 96 95 92 87 84 80 61 54 60 69 70 69 68 66 62 58 55 52 51 50 46 44 42 40
47 52 53 57 62 70 71 58 43 36 30 25 21 21 22 23 31 44 58 76 88 100 101 100 98 97 98 89 91 86 79 81 57 76 62 70 70 68 66 63 60 57 55 51 49 47 45 44 42
47 50 54 57 63 68 70 63 50 37 30 26 22 21 21 24 23 33 47 67 85 99 100 100 101 98 98 89 90 88 84 77 60 51 49 72 74 69 67 65 62 58 55 53 49 47 45 45 44
46 49 53 57 61 66 67 63 55 41 29 26 24 20 22 23 20 21 38 58 80 96 100 100 100 100 95 89 92 91 88 88 94 53 62 67 73 68 68 68 63 62 58 55 52 49 45 46 48
45 48 52 56 59 64 66 64 57 48 32 23 24 21 19 21 15 17 30 48 72 90 99 99 97 99 92 90 94 93 89 71 73 64 39 67 69 69 70 70 66 67 63 58 54 51 49 50 51
44 47 51 57 59 61 64 61 55 51 43 31 22 20 17 16 13 13 22 39 63 84 97 98 96 96 89 89 93 92 89 84 84 72 45 67 66 69 71 73 74 70 66 61 57 54 52 51 51
43 46 50 55 59 60 62 59 58 52 46 36 24 18 16 12 10 11 15 28 51 76 93 96 94 92 88 87 92 90 88 88 82 76 68 51 64 70 75 72 67 67 68 63 59 57 55 54 54
42 45 48 52 56 59 62 63 61 55 48 43 29 17 15 10 6 7 10 19 38 67 86 94 91 88 85 85 89 90 89 86 82 72 55 67 43 76 62 72 72 64 62 64 60 59 57 56 56
40 44 48 51 55 59 59 64 62 58 52 43 33 21 14 10 8 4 7 14 29 54 77 89 90 87 83 82 86 88 85 82 81 77 56 50 64 64 61 72 69 68 65 63 63 62 62 60 58
38 43 46 49 52 55 60 62 63 60 55 46 38 27 17 11 9 7 5 10 22 43 61 80 86 84 82 80 83 86 84 85 82 87 71 61 60 59 60 66 68 68 67 68 68 66 64 62 61
35 40 43 46 50 53 54 59 62 60 59 52 43 33 22 14 11 9 7 10 18 32 47 69 80 83 81 79 83 83 83 81 81 85 91 78 63 55 64 58 71 71 70 69 69 69 67 65 63
Wind_Direction
274 271 271 273 274 271 272 271 268 265 263 256 242 244 244 241 251 250 249 249 237 240 234 233 231 228 228 225 223 221 218 219 219 218 218 216 203 210 209 209 204 201 193 191 182 169 156 149 151
281 279 272 270 274 278 271 269 271 265 261 263 260 254 250 241 243 249 250 252 248 241 236 239 234 230 228 228 226 226 221 221 221 219 217 217 212 210 214 211 210 202 199 196 191 177 168 156 155
287 286 286 285 282 279 274 273 270 269 266 259 254 256 256 249 245 250 249 253 253 243 240 239 239 235 232 231 229 226 224 220 221 219 217 217 216 211 213 211 214 212 206 198 195 186 177 168 157
301 298 297 292 287 282 275 271 274 278 282 278 269 262 254 248 244 245 251 249 251 244 241 240 237 235 233 232 231 229 225 225 218 218 214 215 216 214 214 215 213 208 206 199 200 196 184 180 163
310 305 300 293 288 285 285 287 284 281 277 275 274 269 262 254 246 242 242 247 247 237 238 243 240 236 234 231 231 230 228 225 223 219 216 211 214 212 212 214 213 210 207 202 204 201 192 187 174
304 300 295 291 285 282 283 279 277 278 277 273 267 268 263 263 255 247 242 242 244 240 232 236 241 238 234 233 229 229 228 226 223 220 219 215 213 212 211 210 208 206 209 206 204 203 200 192 183
303 297 293 296 296 292 290 289 287 287 286 282 275 269 264 259 261 257 249 241 241 239 232 227 228 233 232 233 230 226 226 225 225 223 220 217 213 213 210 212 208 207 206 205 206 204 203 198 188
300 300 300 303 299 297 295 291 288 283 282 283 281 278 273 264 259 253 252 248 242 240 233 229 229 225 223 228 232 227 223 223 223 223 220 218 215 214 214 212 210 206 206 205 206 207 204 202 195
299 299 302 303 301 298 297 294 294 292 287 283 280 277 275 270 262 252 247 245 241 240 238 229 227 228 225 215 224 226 222 220 223 222 220 217 215 215 214 211 212 209 207 206 206 209 205 204 199
299 301 304 303 299 297 296 294 293 292 292 288 287 283 275 269 260 252 243 241 238 235 235 232 229 225 226 224 216 219 223 216 220 221 220 217 216 215 212 212 211 211 207 206 207 209 205 204 201
303 302 304 304 304 303 301 301 299 296 293 292 288 284 277 266 261 251 244 236 236 231 232 230 228 226 224 229 220 219 218 216 215 217 218 215 218 216 213 212 213 212 209 207 207 207 206 207 205
303 306 307 305 306 306 307 304 301 299 295 292 291 277 266 260 252 250 240 234 232 228 228 227 225 226 223 226 220 213 211 212 212 214 215 215 216 215 214 213 212 211 209 207 209 209 207 207 208
307 308 309 312 307 307 309 308 307 304 303 295 285 272 256 249 247 240 235 229 225 226 222 224 223 223 222 225 225 230 215 207 208 211 211 213 211 215 214 213 212 212 210 207 208 211 211 212 213
310 312 315 311 314 317 315 314 312 312 304 292 280 267 254 245 238 236 229 225 220 222 216 221 219 221 220 221 226 233 227 207 206 210 208 208 209 215 213 211 212 213 212 207 207 209 210 210 212
313 317 317 320 319 320 318 318 317 313 300 288 276 266 253 242 235 232 227 222 215 218 214 216 217 218 219 220 223 224 214 214 207 211 206 204 207 214 213 211 211 212 212 209 208 208 207 206 213
318 319 321 323 325 325 325 325 321 313 300 287 275 262 251 241 233 228 227 222 215 213 212 212 215 216 217 218 220 222 223 221 210 211 209 203 205 211 212 211 210 211 212 210 207 208 206 207 211
320 323 327 327 330 331 330 327 322 315 301 291 281 271 260 245 234 226 225 220 213 210 211 209 212 214 216 217 218 218 232 215 210 212 211 204 207 210 211 210 210 210 211 210 207 210 207 208 212
325 329 333 332 332 335 333 331 324 315 306 296 284 274 264 252 238 226 222 220 210 208 210 208 210 211 215 216 215 216 218 224 215 211 210 206 208 209 210 210 208 210 211 209 208 209 207 209 213
331 335 337 332 336 338 335 336 328 316 305 296 289 276 269 258 240 227 222 219 210 207 207 208 208 209 213 215 213 213 210 212 202 211 210 207 208 210 210 209 208 210 211 209 210 210 209 212 215
335 337 336 338 341 340 340 343 332 317 313 303 296 289 277 263 246 230 221 218 211 205 205 206 207 208 211 212 211 212 216 217 192 199 214 208 207 210 211 208 209 209 211 211 211 211 212 215 214
339 339 339 344 343 341 344 348 335 320 316 309 311 312 294 274 253 235 222 217 211 205 205 206 206 207 210 211 209 210 217 216 208 204 210 207 207 210 212 208 208 209 210 211 212 212 212 214 214
341 341 342 346 347 346 347 351 349 338 323 314 318 323 317 306 275 242 223 216 211 206 205 204 206 206 210 207 208 210 210 215 216 205 199 207 209 209 211 210 207 209 209 211 209 210 211 213 211
343 342 346 347 350 349 350 351 353 345 327 313 304 314 327 322 298 248 225 218 212 207 205 205 207 206 210 205 208 209 211 217 217 216 185 210 206 211 212 213 207 208 207 208 210 214 212 213 212
345 345 348 350 353 351 352 354 356 351 338 310 297 301 318 330 308 255 232 221 214 207 205 206 207 207 209 204 208 209 211 208 216 192 205 204 206 214 215 212 210 209 209 209 212 213 212 212 213
346 348 350 353 353 354 355 357 355 351 347 333 312 299 305 328 317 266 240 225 216 209 206 207 208 208 208 205 208 210 212 211 216 213 188 193 223 210 215 213 211 213 211 209 210 212 212 212 213
347 351 354 352 353 357 356 359 357 356 352 346 331 307 301 306 317 276 255 231 218 210 208 208 210 209 208 206 207 210 211 212 214 214 204 208 206 209 214 212 209 212 213 210 210 212 213 213 214
347 353 356 354 355 -0 358 360 359 358 357 350 344 314 301 305 310 284 265 230 218 212 211 210 212 209 208 208 208 210 213 213 213 219 222 225 209 204 206 210 210 210 210 210 211 214 216 216 215
348 352 356 357 357 358 1 0 0 359 1 355 347 334 309 295 282 274 241 221 215 214 214 214 213 212 207 209 209 210 213 213 212 214 219 214 208 217 215 207 204 211 212 215 215 216 217 218 217
349 351 356 358 358 358 359 359 1 359 2 4 357 345 329 300 282 261 225 220 211 216 218 217 217 215 208 210 209 212 212 213 215 218 218 214 205 220 209 213 209 213 215 217 219 219 218 220 220
350 351 354 358 0 360 1 360 2 2 3 5 5 358 344 318 283 264 232 220 215 219 222 221 220 218 212 209 210 213 213 214 217 218 221 224 209 206 207 206 206 211 216 216 220 222 221 221 223